AFR76MK LFPG-LIRN

Flight info

Callsign AFR76MK
Flight time 1h 45m
Altitude 37000
Route LANVI DCT SRN DCT ROBAS DCT LOGDI DCT EKDIR DCT LOMED DCT VERUN DCT NIKMA DCT GENGI DCT EVULI DCT ERIKA
Aircraft A320/M-SDE2E3FGIJ1RWY/HB1

Departure

Time 2026-05-07 14:08
Airport Charles de Gaulle International Airport (LFPG)

Arrival

Time 2026-05-07 15:54
Airport Naples International Airport (LIRN)
Time Latitude Longitude Altitude Speed Heading
2026-05-07 13:25 49.00652 2.58019 360 ft 0 kts 268°
2026-05-07 13:54 49.00652 2.58022 354 ft 2 kts 268°
2026-05-07 13:54 49.00653 2.58062 357 ft 4 kts 273°
2026-05-07 13:54 49.00649 2.58102 364 ft 4 kts 286°
2026-05-07 13:55 49.00639 2.58136 364 ft 4 kts 329°
2026-05-07 13:55 49.00630 2.58142 363 ft 0 kts 355°
2026-05-07 13:58 49.00690 2.58134 356 ft 14 kts 352°
2026-05-07 13:58 49.00793 2.58120 354 ft 16 kts 353°
2026-05-07 13:58 49.00901 2.58129 356 ft 17 kts 42°
2026-05-07 13:59 49.00920 2.58309 354 ft 18 kts 85°
2026-05-07 13:59 49.00930 2.58505 354 ft 20 kts 85°
2026-05-07 13:59 49.00940 2.58721 357 ft 21 kts 85°
2026-05-07 13:59 49.00959 2.58953 358 ft 23 kts 73°
2026-05-07 14:00 49.00989 2.59197 354 ft 24 kts 84°
2026-05-07 14:00 49.01002 2.59425 360 ft 15 kts 86°
2026-05-07 14:00 49.00952 2.59532 354 ft 13 kts 174°
2026-05-07 14:00 49.00864 2.59544 354 ft 12 kts 175°
2026-05-07 14:01 49.00786 2.59554 358 ft 11 kts 175°
2026-05-07 14:01 49.00717 2.59563 354 ft 10 kts 175°
2026-05-07 14:01 49.00623 2.59574 360 ft 17 kts 175°
2026-05-07 14:01 49.00505 2.59589 359 ft 16 kts 175°
2026-05-07 14:02 49.00400 2.59602 359 ft 14 kts 175°
2026-05-07 14:02 49.00305 2.59613 354 ft 13 kts 175°
2026-05-07 14:02 49.00221 2.59623 354 ft 12 kts 176°
2026-05-07 14:02 49.00118 2.59635 356 ft 18 kts 175°
2026-05-07 14:03 48.99998 2.59614 357 ft 16 kts 236°
2026-05-07 14:03 48.99981 2.59442 354 ft 18 kts 265°
2026-05-07 14:03 48.99969 2.59217 354 ft 23 kts 265°
2026-05-07 14:03 48.99956 2.58965 354 ft 25 kts 265°
2026-05-07 14:04 48.99943 2.58699 359 ft 26 kts 265°
2026-05-07 14:04 48.99927 2.58418 360 ft 27 kts 265°
2026-05-07 14:04 48.99911 2.58129 358 ft 25 kts 266°
2026-05-07 14:04 48.99898 2.57857 354 ft 26 kts 265°
2026-05-07 14:05 48.99882 2.57572 354 ft 28 kts 265°
2026-05-07 14:05 48.99867 2.57286 354 ft 25 kts 266°
2026-05-07 14:05 48.99853 2.57014 357 ft 26 kts 265°
2026-05-07 14:05 48.99838 2.56741 354 ft 27 kts 265°
2026-05-07 14:06 48.99824 2.56476 354 ft 25 kts 266°
2026-05-07 14:06 48.99809 2.56200 356 ft 27 kts 264°
2026-05-07 14:06 48.99797 2.55945 354 ft 18 kts 261°
2026-05-07 14:06 48.99744 2.55813 357 ft 13 kts 198°
2026-05-07 14:07 48.99658 2.55818 357 ft 12 kts 174°
2026-05-07 14:07 48.99599 2.55862 355 ft 9 kts 90°
2026-05-07 14:07 48.99610 2.56014 354 ft 35 kts 84°
2026-05-07 14:07 48.99648 2.56761 356 ft 104 kts 85°
2026-05-07 14:08 48.99724 2.58130 363 ft 156 kts 85°
2026-05-07 14:08 48.99814 2.59814 847 ft 162 kts 84°
2026-05-07 14:08 48.99901 2.61556 1540 ft 164 kts 84°
2026-05-07 14:08 48.99992 2.63289 2227 ft 164 kts 84°
2026-05-07 14:09 49.00084 2.65036 2865 ft 166 kts 84°
2026-05-07 14:09 49.00176 2.66788 3517 ft 167 kts 85°
2026-05-07 14:09 49.00272 2.68623 3930 ft 184 kts 85°
2026-05-07 14:09 49.00379 2.70685 4240 ft 208 kts 85°
2026-05-07 14:10 49.00499 2.73008 4585 ft 232 kts 85°
2026-05-07 14:10 49.00633 2.75585 5015 ft 256 kts 86°
2026-05-07 14:10 49.00710 2.78371 5699 ft 268 kts 93°
2026-05-07 14:10 49.00529 2.81212 6586 ft 272 kts 99°
2026-05-07 14:11 49.00229 2.84075 7452 ft 276 kts 101°
2026-05-07 14:11 48.99886 2.86969 8295 ft 281 kts 101°
2026-05-07 14:11 48.99529 2.89920 9144 ft 285 kts 101°
2026-05-07 14:11 48.99179 2.92922 9993 ft 290 kts 101°
2026-05-07 14:12 48.98834 2.96024 10452 ft 308 kts 100°
2026-05-07 14:12 48.98508 2.99374 10755 ft 330 kts 98°
2026-05-07 14:12 48.98210 3.02885 11378 ft 338 kts 97°
2026-05-07 14:12 48.97923 3.06471 12100 ft 344 kts 97°
2026-05-07 14:13 48.97637 3.10110 12831 ft 349 kts 97°
2026-05-07 14:13 48.97342 3.13798 13571 ft 354 kts 97°
2026-05-07 14:13 48.97037 3.17537 14269 ft 358 kts 97°
2026-05-07 14:13 48.96721 3.21316 14924 ft 362 kts 97°
2026-05-07 14:14 48.96397 3.25129 15578 ft 366 kts 98°
2026-05-07 14:14 48.96065 3.28989 16232 ft 369 kts 98°
2026-05-07 14:14 48.95726 3.32884 16876 ft 373 kts 98°
2026-05-07 14:14 48.95385 3.36814 17521 ft 377 kts 98°
2026-05-07 14:15 48.95045 3.40736 18150 ft 381 kts 98°
2026-05-07 14:15 48.94697 3.44745 18727 ft 384 kts 98°
2026-05-07 14:15 48.94342 3.48789 19291 ft 387 kts 98°
2026-05-07 14:15 48.93983 3.52862 19869 ft 390 kts 98°
2026-05-07 14:16 48.93641 3.56971 20443 ft 393 kts 97°
2026-05-07 14:16 48.93377 3.61127 21011 ft 396 kts 95°
2026-05-07 14:16 48.93170 3.65320 21568 ft 399 kts 94°
2026-05-07 14:16 48.92984 3.69549 22141 ft 402 kts 94°
2026-05-07 14:17 48.92794 3.73811 22699 ft 406 kts 94°
2026-05-07 14:17 48.92589 3.78104 23248 ft 409 kts 95°
2026-05-07 14:17 48.92366 3.82427 23760 ft 412 kts 95°
2026-05-07 14:17 48.92131 3.86781 24202 ft 415 kts 95°
2026-05-07 14:18 48.91887 3.91163 24633 ft 417 kts 95°
2026-05-07 14:18 48.91638 3.95576 25054 ft 420 kts 95°
2026-05-07 14:18 48.91389 4.00012 25473 ft 423 kts 95°
2026-05-07 14:18 48.91139 4.04474 25882 ft 425 kts 95°
2026-05-07 14:19 48.90882 4.08964 26283 ft 427 kts 95°
2026-05-07 14:19 48.90624 4.13414 26664 ft 430 kts 95°
2026-05-07 14:19 48.90337 4.18013 27049 ft 432 kts 98°
2026-05-07 14:19 48.89713 4.22422 27416 ft 434 kts 108°
2026-05-07 14:20 48.88611 4.26688 27781 ft 435 kts 117°
2026-05-07 14:20 48.87161 4.30735 28142 ft 437 kts 120°
2026-05-07 14:20 48.85679 4.34783 28505 ft 440 kts 120°
2026-05-07 14:20 48.84192 4.38848 28854 ft 442 kts 120°
2026-05-07 14:21 48.82695 4.42934 29203 ft 444 kts 120°
2026-05-07 14:21 48.81188 4.47037 29534 ft 446 kts 120°
2026-05-07 14:21 48.79670 4.51160 29856 ft 448 kts 120°
2026-05-07 14:21 48.78144 4.55298 30165 ft 451 kts 120°
2026-05-07 14:22 48.76609 4.59451 30429 ft 453 kts 120°
2026-05-07 14:22 48.75065 4.63624 30678 ft 455 kts 120°
2026-05-07 14:22 48.73511 4.67817 30926 ft 457 kts 120°
2026-05-07 14:22 48.71954 4.72025 31166 ft 459 kts 120°
2026-05-07 14:23 48.70387 4.76249 31401 ft 461 kts 121°
2026-05-07 14:23 48.68823 4.80457 31672 ft 462 kts 121°
2026-05-07 14:23 48.67241 4.84712 31983 ft 461 kts 121°
2026-05-07 14:23 48.65664 4.88942 32300 ft 461 kts 121°
2026-05-07 14:24 48.64085 4.93165 32614 ft 461 kts 121°
2026-05-07 14:24 48.62504 4.97384 32927 ft 461 kts 121°
2026-05-07 14:24 48.60921 5.01601 33235 ft 461 kts 121°
2026-05-07 14:24 48.59340 5.05810 33549 ft 461 kts 121°
2026-05-07 14:25 48.57757 5.10016 33877 ft 461 kts 121°
2026-05-07 14:25 48.56170 5.14218 34167 ft 461 kts 121°
2026-05-07 14:25 48.54582 5.18417 34434 ft 460 kts 121°
2026-05-07 14:25 48.52996 5.22612 34671 ft 461 kts 121°
2026-05-07 14:26 48.51406 5.26816 34879 ft 462 kts 121°
2026-05-07 14:26 48.49812 5.31023 35120 ft 462 kts 121°
2026-05-07 14:26 48.48218 5.35226 35355 ft 462 kts 121°
2026-05-07 14:26 48.46621 5.39426 35590 ft 462 kts 121°
2026-05-07 14:27 48.45025 5.43624 35818 ft 461 kts 121°
2026-05-07 14:27 48.43449 5.47758 36041 ft 461 kts 122°
2026-05-07 14:27 48.41856 5.51916 36264 ft 461 kts 122°
2026-05-07 14:27 48.40245 5.56119 36478 ft 461 kts 122°
2026-05-07 14:28 48.38643 5.60299 36700 ft 461 kts 121°
2026-05-07 14:28 48.37043 5.64473 36879 ft 461 kts 122°
2026-05-07 14:28 48.35438 5.68653 37024 ft 462 kts 122°
2026-05-07 14:29 48.32192 5.76929 37056 ft 457 kts 127°
2026-05-07 14:29 48.27941 5.83902 37056 ft 452 kts 142°
2026-05-07 14:30 48.23164 5.90045 37056 ft 452 kts 142°
2026-05-07 14:30 48.18389 5.96199 37057 ft 453 kts 142°
2026-05-07 14:31 48.13613 6.02349 37058 ft 453 kts 142°
2026-05-07 14:31 48.08820 6.08488 37059 ft 453 kts 142°
2026-05-07 14:32 48.04023 6.14616 37043 ft 454 kts 142°
2026-05-07 14:32 47.99220 6.20731 37056 ft 454 kts 142°
2026-05-07 14:33 47.94441 6.26800 37055 ft 454 kts 142°
2026-05-07 14:33 47.90412 6.31908 37058 ft 454 kts 142°
2026-05-07 14:34 47.85596 6.37991 37057 ft 454 kts 142°
2026-05-07 14:34 47.80778 6.44073 37048 ft 454 kts 143°
2026-05-07 14:35 47.75955 6.50147 37051 ft 455 kts 143°
2026-05-07 14:35 47.71121 6.56220 37057 ft 455 kts 143°
2026-05-07 14:36 47.66276 6.62284 37041 ft 456 kts 143°
2026-05-07 14:36 47.61426 6.68328 37041 ft 455 kts 143°
2026-05-07 14:37 47.56611 6.74335 37032 ft 456 kts 143°
2026-05-07 14:37 47.49326 6.83390 37034 ft 456 kts 143°
2026-05-07 14:38 47.44461 6.89406 37035 ft 456 kts 143°
2026-05-07 14:38 47.39598 6.95413 37035 ft 456 kts 143°
2026-05-07 14:39 47.34735 7.01404 37023 ft 456 kts 143°
2026-05-07 14:39 47.29864 7.07391 37025 ft 456 kts 143°
2026-05-07 14:40 47.24991 7.13375 37019 ft 456 kts 144°
2026-05-07 14:40 47.20105 7.19353 37025 ft 457 kts 144°
2026-05-07 14:41 47.15207 7.25310 37021 ft 457 kts 144°
2026-05-07 14:41 47.10341 7.31231 37013 ft 457 kts 144°
2026-05-07 14:42 47.05443 7.37181 37013 ft 457 kts 144°
2026-05-07 14:42 47.00542 7.43110 36999 ft 457 kts 144°
2026-05-07 14:43 46.95644 7.49017 36996 ft 457 kts 144°
2026-05-07 14:43 46.90730 7.54933 37008 ft 457 kts 144°
2026-05-07 14:44 46.85826 7.60843 37021 ft 458 kts 144°
2026-05-07 14:44 46.80938 7.66712 37031 ft 458 kts 144°
2026-05-07 14:45 46.76013 7.72597 37035 ft 457 kts 144°
2026-05-07 14:45 46.71089 7.78470 37042 ft 458 kts 144°
2026-05-07 14:46 46.66166 7.84345 37031 ft 457 kts 145°
2026-05-07 14:46 46.61243 7.90180 37035 ft 456 kts 145°
2026-05-07 14:47 46.56345 7.95962 37037 ft 457 kts 145°
2026-05-07 14:47 46.51417 8.01781 37028 ft 456 kts 145°
2026-05-07 14:48 46.46497 8.07596 37020 ft 456 kts 145°
2026-05-07 14:48 46.41569 8.13398 37010 ft 456 kts 145°
2026-05-07 14:49 46.36628 8.19190 37008 ft 457 kts 145°
2026-05-07 14:49 46.31683 8.24974 36995 ft 457 kts 145°
2026-05-07 14:50 46.26737 8.30750 36972 ft 457 kts 145°
2026-05-07 14:50 46.21780 8.36524 36977 ft 458 kts 146°
2026-05-07 14:51 46.16825 8.42294 36975 ft 458 kts 146°
2026-05-07 14:51 46.11859 8.48048 36967 ft 458 kts 146°
2026-05-07 14:52 46.06882 8.53797 36975 ft 459 kts 146°
2026-05-07 14:52 46.01904 8.59544 36962 ft 459 kts 146°
2026-05-07 14:53 45.96920 8.65288 36970 ft 459 kts 146°
2026-05-07 14:53 45.91930 8.71016 36972 ft 459 kts 146°
2026-05-07 14:54 45.86933 8.76728 36970 ft 459 kts 146°
2026-05-07 14:54 45.81936 8.82444 36952 ft 459 kts 147°
2026-05-07 14:55 45.76941 8.88144 36960 ft 459 kts 147°
2026-05-07 14:55 45.71942 8.93831 36983 ft 459 kts 147°
2026-05-07 14:56 45.66940 8.99498 36966 ft 459 kts 147°
2026-05-07 14:56 45.62278 9.05791 36964 ft 465 kts 137°
2026-05-07 14:57 45.57974 9.12590 36944 ft 465 kts 137°
2026-05-07 14:57 45.53618 9.19436 36954 ft 466 kts 137°
2026-05-07 14:58 45.49256 9.26270 36960 ft 466 kts 137°
2026-05-07 14:58 45.44895 9.33083 36969 ft 466 kts 137°
2026-05-07 14:59 45.40549 9.39857 37019 ft 466 kts 137°
2026-05-07 14:59 45.36165 9.46656 37003 ft 466 kts 138°
2026-05-07 15:00 45.31801 9.53417 36996 ft 466 kts 138°
2026-05-07 15:00 45.27401 9.60223 36987 ft 466 kts 138°
2026-05-07 15:01 45.23013 9.66990 36973 ft 466 kts 138°
2026-05-07 15:01 45.18458 9.73460 36961 ft 458 kts 148°
2026-05-07 15:02 45.13293 9.78614 36948 ft 455 kts 151°
2026-05-07 15:02 45.08096 9.83720 36962 ft 454 kts 151°
2026-05-07 15:03 45.02905 9.88812 36970 ft 454 kts 151°
2026-05-07 15:03 44.97713 9.93890 36978 ft 454 kts 151°
2026-05-07 15:04 44.92561 9.98934 36962 ft 454 kts 151°
2026-05-07 15:04 44.87377 10.04005 36970 ft 453 kts 152°
2026-05-07 15:05 44.82189 10.09049 36973 ft 453 kts 152°
2026-05-07 15:05 44.77000 10.14080 36975 ft 453 kts 152°
2026-05-07 15:06 44.71816 10.19111 36948 ft 452 kts 152°
2026-05-07 15:06 44.66675 10.24218 36971 ft 453 kts 150°
2026-05-07 15:07 44.61595 10.29466 36978 ft 453 kts 150°
2026-05-07 15:07 44.56524 10.34693 36989 ft 452 kts 150°
2026-05-07 15:08 44.51433 10.39869 36981 ft 452 kts 150°
2026-05-07 15:08 44.46335 10.45001 36990 ft 451 kts 150°
2026-05-07 15:09 44.41278 10.50097 36995 ft 451 kts 150°
2026-05-07 15:09 44.36192 10.55233 36998 ft 451 kts 150°
2026-05-07 15:10 44.31106 10.60353 36994 ft 450 kts 151°
2026-05-07 15:10 44.26017 10.65453 37006 ft 450 kts 151°
2026-05-07 15:11 44.20977 10.70650 37007 ft 455 kts 144°
2026-05-07 15:11 44.16695 10.77272 37006 ft 462 kts 136°
2026-05-07 15:12 44.12567 10.84129 37008 ft 462 kts 136°
2026-05-07 15:12 44.08421 10.90960 36965 ft 461 kts 136°
2026-05-07 15:13 44.04278 10.97774 36982 ft 462 kts 136°
2026-05-07 15:13 43.99785 11.04029 36987 ft 455 kts 144°
2026-05-07 15:14 43.95071 11.09912 36988 ft 456 kts 144°
2026-05-07 15:14 43.90357 11.15789 36994 ft 456 kts 144°
2026-05-07 15:15 43.85637 11.21657 36975 ft 456 kts 145°
2026-05-07 15:15 43.80916 11.27514 36982 ft 456 kts 145°
2026-05-07 15:16 43.76221 11.33331 36976 ft 456 kts 145°
2026-05-07 15:16 43.71484 11.39184 36983 ft 457 kts 145°
2026-05-07 15:17 43.66742 11.45027 36986 ft 457 kts 145°
2026-05-07 15:17 43.61995 11.50864 36970 ft 457 kts 145°
2026-05-07 15:18 43.57240 11.56701 36981 ft 458 kts 145°
2026-05-07 15:18 43.52482 11.62528 36987 ft 458 kts 145°
2026-05-07 15:19 43.47716 11.68344 36970 ft 458 kts 145°
2026-05-07 15:19 43.42950 11.74155 36973 ft 458 kts 145°
2026-05-07 15:20 43.38180 11.79970 36963 ft 458 kts 146°
2026-05-07 15:20 43.33403 11.85778 36973 ft 459 kts 146°
2026-05-07 15:21 43.28615 11.91573 36975 ft 459 kts 146°
2026-05-07 15:21 43.23817 11.97357 36981 ft 459 kts 146°
2026-05-07 15:22 43.19022 12.03137 36963 ft 459 kts 146°
2026-05-07 15:22 43.14257 12.08883 36951 ft 460 kts 146°
2026-05-07 15:23 43.09449 12.14658 36958 ft 460 kts 146°
2026-05-07 15:23 43.04622 12.20516 36966 ft 462 kts 144°
2026-05-07 15:24 43.00015 12.26595 36966 ft 465 kts 143°
2026-05-07 15:24 42.95432 12.32827 36948 ft 465 kts 143°
2026-05-07 15:25 42.90816 12.38995 36950 ft 464 kts 144°
2026-05-07 15:25 42.86161 12.45099 36944 ft 465 kts 144°
2026-05-07 15:26 42.82276 12.50157 36951 ft 465 kts 144°
2026-05-07 15:26 42.77607 12.56252 36958 ft 465 kts 144°
2026-05-07 15:27 42.72943 12.62361 36928 ft 465 kts 145°
2026-05-07 15:27 42.68275 12.68462 36948 ft 466 kts 145°
2026-05-07 15:28 42.63585 12.74555 36966 ft 467 kts 145°
2026-05-07 15:28 42.58887 12.80649 36968 ft 467 kts 145°
2026-05-07 15:29 42.54184 12.86741 36979 ft 468 kts 145°
2026-05-07 15:29 42.49469 12.92836 36960 ft 469 kts 145°
2026-05-07 15:30 42.44748 12.98937 36965 ft 469 kts 146°
2026-05-07 15:30 42.40017 13.05020 36970 ft 469 kts 146°
2026-05-07 15:31 42.35272 13.11095 36974 ft 469 kts 146°
2026-05-07 15:31 42.30524 13.17160 36945 ft 471 kts 146°
2026-05-07 15:32 42.25762 13.23240 36954 ft 472 kts 147°
2026-05-07 15:32 42.21019 13.29299 36942 ft 473 kts 146°
2026-05-07 15:33 42.16248 13.35449 36734 ft 476 kts 146°
2026-05-07 15:33 42.13800 13.38526 35517 ft 487 kts 147°
2026-05-07 15:33 42.11283 13.41562 34607 ft 490 kts 147°
2026-05-07 15:34 42.08738 13.44585 33926 ft 486 kts 147°
2026-05-07 15:34 42.06210 13.47585 33233 ft 482 kts 147°
2026-05-07 15:34 42.03707 13.50573 32575 ft 478 kts 147°
2026-05-07 15:34 42.01242 13.53539 31980 ft 473 kts 147°
2026-05-07 15:35 41.98806 13.56489 31387 ft 469 kts 146°
2026-05-07 15:35 41.96396 13.59416 30807 ft 465 kts 146°
2026-05-07 15:35 41.94005 13.62318 30244 ft 461 kts 146°
2026-05-07 15:35 41.91629 13.65189 29602 ft 458 kts 146°
2026-05-07 15:36 41.89289 13.68005 28915 ft 450 kts 146°
2026-05-07 15:36 41.86977 13.70786 27898 ft 443 kts 146°
2026-05-07 15:36 41.84732 13.73485 26928 ft 436 kts 145°
2026-05-07 15:36 41.82487 13.76182 26014 ft 430 kts 144°
2026-05-07 15:37 41.80273 13.78840 25152 ft 424 kts 144°
2026-05-07 15:37 41.78089 13.81456 24312 ft 418 kts 144°
2026-05-07 15:37 41.75932 13.84034 23397 ft 414 kts 143°
2026-05-07 15:37 41.73793 13.86586 22479 ft 409 kts 143°
2026-05-07 15:38 41.71691 13.89094 21707 ft 400 kts 143°
2026-05-07 15:38 41.69652 13.91532 21273 ft 388 kts 143°
2026-05-07 15:38 41.67639 13.93936 20765 ft 387 kts 143°
2026-05-07 15:38 41.65630 13.96328 20276 ft 386 kts 143°
2026-05-07 15:39 41.63632 13.98703 19790 ft 383 kts 143°
2026-05-07 15:39 41.61647 14.01062 19381 ft 379 kts 143°
2026-05-07 15:39 41.59681 14.03398 18922 ft 377 kts 143°
2026-05-07 15:39 41.57742 14.05703 18529 ft 368 kts 142°
2026-05-07 15:40 41.55848 14.07958 17832 ft 360 kts 142°
2026-05-07 15:40 41.54023 14.10132 17398 ft 345 kts 142°
2026-05-07 15:40 41.52241 14.12249 16973 ft 342 kts 142°
2026-05-07 15:40 41.50463 14.14354 16553 ft 341 kts 143°
2026-05-07 15:41 41.48695 14.16443 16137 ft 339 kts 142°
2026-05-07 15:41 41.46929 14.18523 15716 ft 338 kts 142°
2026-05-07 15:41 41.45166 14.20595 15301 ft 338 kts 142°
2026-05-07 15:41 41.43402 14.22672 14885 ft 338 kts 142°
2026-05-07 15:42 41.41644 14.24746 14471 ft 337 kts 142°
2026-05-07 15:42 41.39894 14.26809 14060 ft 336 kts 142°
2026-05-07 15:42 41.38145 14.28866 13628 ft 335 kts 142°
2026-05-07 15:42 41.36402 14.30914 13195 ft 333 kts 142°
2026-05-07 15:43 41.34672 14.32951 12770 ft 331 kts 142°
2026-05-07 15:43 41.32957 14.34968 12354 ft 328 kts 141°
2026-05-07 15:43 41.31254 14.36969 11934 ft 325 kts 141°
2026-05-07 15:43 41.29563 14.38954 11522 ft 323 kts 141°
2026-05-07 15:44 41.27925 14.40876 11357 ft 312 kts 141°
2026-05-07 15:44 41.26337 14.42741 11085 ft 299 kts 141°
2026-05-07 15:44 41.24790 14.44552 10477 ft 294 kts 140°
2026-05-07 15:44 41.23264 14.46336 9928 ft 288 kts 140°
2026-05-07 15:45 41.21790 14.48063 9495 ft 277 kts 140°
2026-05-07 15:45 41.20380 14.49715 9146 ft 264 kts 140°
2026-05-07 15:45 41.19025 14.51297 8788 ft 258 kts 140°
2026-05-07 15:45 41.17672 14.52871 8421 ft 258 kts 139°
2026-05-07 15:46 41.14975 14.56016 7656 ft 256 kts 139°
2026-05-07 15:46 41.13685 14.57520 7497 ft 239 kts 139°
2026-05-07 15:46 41.12471 14.58934 7443 ft 228 kts 139°
2026-05-07 15:47 41.11286 14.60312 7376 ft 226 kts 139°
2026-05-07 15:47 41.10105 14.61685 7283 ft 225 kts 139°
2026-05-07 15:47 41.08847 14.62960 6888 ft 234 kts 153°
2026-05-07 15:47 41.07291 14.63537 6637 ft 231 kts 176°
2026-05-07 15:48 41.05726 14.63270 6478 ft 225 kts 198°
2026-05-07 15:48 41.04377 14.62266 6259 ft 224 kts 219°
2026-05-07 15:48 41.03413 14.60684 5966 ft 218 kts 236°
2026-05-07 15:48 41.02631 14.58998 5662 ft 213 kts 237°
2026-05-07 15:49 41.01850 14.57322 5348 ft 215 kts 237°
2026-05-07 15:49 41.01058 14.55625 5033 ft 218 kts 237°
2026-05-07 15:49 41.00258 14.53912 4717 ft 221 kts 237°
2026-05-07 15:49 40.99445 14.52175 4387 ft 223 kts 237°
2026-05-07 15:50 40.98627 14.50425 4053 ft 224 kts 238°
2026-05-07 15:50 40.97817 14.48695 3732 ft 224 kts 238°
2026-05-07 15:50 40.96994 14.46937 3409 ft 225 kts 239°
2026-05-07 15:50 40.96168 14.45175 3080 ft 226 kts 240°
2026-05-07 15:51 40.95353 14.43437 2755 ft 218 kts 239°
2026-05-07 15:51 40.94572 14.41774 2475 ft 204 kts 239°
2026-05-07 15:51 40.93862 14.40263 2155 ft 186 kts 239°
2026-05-07 15:51 40.93218 14.38891 1918 ft 166 kts 240°
2026-05-07 15:52 40.92633 14.37648 1685 ft 153 kts 239°
2026-05-07 15:52 40.92090 14.36490 1472 ft 145 kts 238°
2026-05-07 15:52 40.91566 14.35378 1268 ft 141 kts 237°
2026-05-07 15:52 40.91055 14.34288 1086 ft 140 kts 238°
2026-05-07 15:53 40.90552 14.33211 863 ft 137 kts 239°
2026-05-07 15:53 40.90050 14.32148 649 ft 136 kts 240°
2026-05-07 15:53 40.89557 14.31087 405 ft 137 kts 240°
2026-05-07 15:53 40.89056 14.30039 253 ft 133 kts 240°
2026-05-07 15:54 40.88643 14.29157 265 ft 89 kts 238°
2026-05-07 15:54 40.88426 14.28702 276 ft 36 kts 236°
2026-05-07 15:54 40.88288 14.28476 282 ft 28 kts 221°
2026-05-07 15:54 40.88150 14.28364 286 ft 18 kts 206°
2026-05-07 15:55 40.88090 14.28325 287 ft 1 kts 207°
2026-05-07 15:55 40.88085 14.28322 287 ft 3 kts 206°
2026-05-07 15:55 40.88062 14.28339 290 ft 7 kts 120°
2026-05-07 15:56 40.88053 14.28432 286 ft 14 kts 96°
2026-05-07 15:56 40.88013 14.28534 285 ft 13 kts 178°
2026-05-07 15:56 40.87954 14.28475 287 ft 9 kts 225°
2026-05-07 15:56 40.87927 14.28420 288 ft 6 kts 227°
2026-05-07 15:57 40.87900 14.28412 294 ft 3 kts 187°
2026-05-07 15:57 40.87873 14.28407 291 ft 4 kts 188°
2026-05-07 15:57 40.87868 14.28406 291 ft 0 kts 188°